Probability
0 0 1 3 2 1 0 0 0 0 0 0 0 0 0 0 0 0 0 0 0 0 0 0 0 0 0 0 0 0 0 0 0 0 0 0 0 0 0 1 6 19 31
0 0 0 1 1 0 0 0 0 0 0 0 0 0 0 0 0 0 0 0 0 0 0 0 0 0 0 0 0 0 0 0 0 0 0 0 0 0 0 0 3 9 16
0 0 0 0 0 0 0 0 0 0 0 0 0 0 0 0 0 0 0 0 0 0 0 0 0 0 0 0 0 0 0 0 0 0 0 0 0 0 0 0 0 2 3
0 0 0 0 0 0 0 0 0 0 0 0 0 0 0 0 0 0 0 0 0 0 0 0 0 0 0 0 0 0 0 0 0 0 0 0 0 0 0 0 0 0 0
0 0 0 0 0 0 0 0 0 0 0 0 0 0 0 0 0 0 0 0 0 0 0 0 0 0 0 0 0 0 0 0 0 0 0 0 0 0 0 0 0 0 0
0 0 0 0 1 0 0 0 0 0 0 0 0 0 0 0 0 0 0 0 0 0 0 0 0 0 0 0 0 0 0 0 0 0 0 0 0 0 0 0 0 0 0
0 0 0 0 0 0 0 0 0 0 0 0 0 0 0 0 0 0 0 0 0 0 0 0 0 0 0 0 0 0 0 0 0 0 0 0 0 0 0 0 0 0 0
0 0 0 0 0 0 0 0 0 0 0 0 0 0 0 0 0 0 0 0 0 0 0 0 0 0 0 0 0 0 0 0 0 0 0 0 0 0 0 0 0 0 0
0 0 0 0 0 0 0 0 0 0 0 0 0 0 0 0 0 0 0 0 0 0 0 0 0 0 0 0 0 0 0 0 0 0 0 0 0 0 0 0 0 0 0
0 0 0 0 0 0 0 0 0 0 0 0 0 0 0 0 0 0 0 0 0 0 0 0 0 0 0 0 0 0 0 0 0 0 0 0 0 0 0 0 0 0 0
0 0 0 0 0 0 0 0 0 0 0 0 0 0 0 0 0 0 0 0 0 0 0 0 0 0 0 0 0 0 0 0 0 0 0 0 0 0 0 0 0 0 0
0 0 0 0 0 0 0 0 0 0 0 0 0 0 0 0 0 0 0 0 0 0 0 0 0 0 0 0 0 0 0 0 0 0 0 0 0 0 0 0 0 0 0
0 0 0 0 0 0 0 0 0 0 0 0 0 0 0 0 0 0 0 0 0 0 0 0 0 0 0 0 0 0 0 0 0 0 0 0 0 0 0 0 0 0 0
0 0 0 0 0 0 0 0 0 0 0 0 0 0 0 0 0 0 0 0 0 0 0 0 0 0 0 0 0 0 0 0 0 0 0 0 0 0 0 0 0 0 0
0 0 0 0 0 0 0 0 0 0 0 0 0 0 0 0 0 0 0 0 0 0 0 0 0 0 0 0 0 0 0 0 0 0 0 0 0 0 0 0 0 0 0
0 0 0 0 0 0 0 0 0 0 0 0 0 0 0 0 0 0 0 0 0 0 0 0 0 0 0 0 0 0 0 0 0 0 0 0 0 0 0 0 0 0 0
0 0 0 0 0 0 0 0 0 0 0 0 0 0 0 0 0 0 0 0 0 0 0 0 0 0 0 0 0 0 0 0 0 0 0 0 0 0 0 0 0 0 0
0 0 0 0 0 0 0 0 0 0 0 0 0 0 0 0 0 0 0 0 0 0 0 0 0 0 0 0 0 0 0 0 0 0 0 0 0 0 0 0 0 0 0
0 0 0 0 0 0 0 0 0 0 0 0 0 0 0 0 0 0 0 0 0 0 0 0 0 0 0 0 0 0 0 0 0 0 0 0 0 0 0 0 0 0 0
0 0 0 0 0 0 0 0 0 0 0 0 0 0 0 0 0 0 0 0 0 0 0 0 0 0 0 0 0 0 0 0 0 0 0 0 0 0 0 0 0 0 0
0 0 0 0 0 0 0 0 0 0 0 0 0 0 0 0 0 0 0 0 0 0 0 0 0 0 0 0 0 0 0 0 0 0 0 0 0 0 0 0 0 0 0
0 0 0 0 0 0 0 0 0 0 0 0 0 0 0 0 0 0 0 0 0 0 0 0 0 0 0 0 0 0 0 0 0 0 0 0 0 0 0 0 0 0 0
0 0 0 0 0 0 0 0 0 0 0 0 0 0 0 0 0 0 0 0 0 0 0 0 0 0 0 0 0 0 0 0 0 0 0 0 0 0 0 0 0 0 0
0 0 0 0 0 0 0 0 0 0 0 0 0 0 0 0 0 0 0 0 0 0 0 0 0 0 0 0 0 0 0 0 0 0 0 0 0 0 0 0 0 0 0
0 0 0 0 0 0 0 0 0 0 0 0 0 0 0 0 0 0 0 0 0 0 0 0 0 0 0 0 0 0 0 0 0 0 0 0 0 0 0 0 0 0 0
0 0 0 0 0 0 0 0 0 0 0 0 0 0 0 0 0 0 0 0 0 0 0 0 0 0 0 0 0 0 0 0 0 0 0 0 0 0 0 0 0 0 0
Wind_Speed
13 13 7 4 4 2 2 4 5 5 5 5 5 4 4 5 5 4 4 3 2 1 2 2 2 2 2 3 3 3 3 4 6 6 4 4 4 4 4 5 2 3 3
10 11 7 6 4 3 6 5 6 6 5 5 5 4 4 5 5 5 5 5 4 3 3 2 3 3 2 3 4 4 5 5 5 8 6 6 6 7 7 7 3 3 2
5 7 7 6 1 3 6 7 6 6 5 5 5 5 5 5 5 5 6 6 6 6 5 5 4 3 5 5 6 5 5 3 4 4 5 6 7 8 9 6 5 4 3
3 6 8 7 6 5 3 6 6 7 7 7 7 7 7 6 6 7 7 7 6 6 5 5 5 5 7 6 5 5 6 5 5 4 6 6 6 7 9 8 9 6 3
4 10 10 8 7 8 8 8 8 8 8 8 8 8 8 7 7 7 7 7 7 8 7 7 7 6 6 7 7 8 8 8 6 4 6 7 8 9 8 5 7 7 6
5 9 9 10 10 10 8 8 10 9 7 9 9 9 8 7 7 8 6 7 8 8 8 7 7 5 7 8 7 7 8 8 9 9 9 9 10 9 9 7 6 6 5
5 9 7 8 11 9 7 9 10 9 7 7 8 9 9 7 6 7 4 7 8 8 7 7 8 9 7 7 4 3 4 3 3 6 8 9 9 10 10 8 7 5 4
7 8 7 9 14 10 6 6 7 7 6 6 7 8 9 6 3 5 5 8 8 8 7 7 7 9 10 9 7 7 6 6 6 6 7 8 8 9 10 7 3 3 4
4 5 5 10 13 14 12 8 6 5 5 4 6 8 9 7 3 3 4 7 7 7 7 7 7 9 12 14 8 6 6 7 2 2 3 6 8 7 8 10 9 8 7
6 5 5 7 10 13 14 12 9 8 6 4 6 8 9 8 3 4 6 4 6 6 6 7 9 9 11 13 10 8 8 8 8 6 4 4 5 4 7 10 9 8 7
7 7 6 6 8 10 12 11 10 8 7 6 6 7 7 6 4 2 7 3 5 4 5 5 7 8 9 10 9 8 7 8 6 6 5 5 6 7 8 8 8 8 8
8 8 7 7 7 9 10 10 11 10 10 8 8 8 8 7 5 3 4 5 3 3 3 5 6 5 5 7 7 8 11 9 6 6 6 6 7 8 8 8 6 5 5
10 9 8 8 7 8 9 9 10 10 10 10 8 6 5 7 6 6 6 4 4 3 5 6 3 2 5 4 3 6 7 8 8 7 6 6 6 7 7 7 7 5 1
11 11 10 8 7 7 7 8 8 10 11 11 10 8 6 6 8 7 6 5 4 5 7 5 1 2 2 2 2 2 6 6 7 7 7 7 6 6 7 8 8 9 8
12 11 10 9 8 7 5 4 5 4 5 9 9 8 7 7 6 7 5 3 2 2 3 7 7 4 3 3 4 4 6 6 6 6 6 7 7 7 7 7 6 6 7
11 10 10 9 9 8 7 6 8 6 8 8 3 3 7 9 13 10 8 6 3 1 4 4 3 2 2 3 3 4 6 6 6 6 6 7 7 7 7 6 7 8 8
12 11 10 9 9 9 8 8 8 7 7 6 5 5 9 12 12 9 6 4 2 4 5 4 3 2 2 2 2 4 5 4 4 5 6 6 7 6 6 6 6 7 8
12 9 9 10 9 9 8 8 9 12 12 8 5 5 11 13 11 8 7 6 7 6 4 4 3 3 2 1 2 3 3 4 4 5 5 6 6 6 5 6 6 7 8
13 11 10 10 10 10 10 9 9 10 11 10 10 8 8 9 7 6 6 8 7 6 5 4 4 3 3 1 1 1 2 3 3 4 4 5 5 5 5 6 5 3 5
14 12 11 11 11 11 10 9 9 10 11 9 10 11 12 10 9 9 9 8 5 5 5 4 4 3 3 2 2 2 2 2 1 3 4 4 4 4 5 5 6 6 5
13 13 12 11 12 12 11 11 11 11 10 12 12 13 15 12 10 10 9 8 6 6 5 5 5 5 6 5 5 4 3 2 1 1 3 4 4 4 4 5 5 5 5
13 14 14 13 12 12 11 11 13 15 14 13 11 14 16 12 9 8 9 9 8 7 6 6 5 5 5 6 5 4 4 4 3 1 1 2 2 3 4 4 5 5 5
15 15 15 14 12 12 11 12 12 12 12 13 12 12 12 11 9 8 9 10 9 9 8 7 6 6 5 4 4 5 5 4 1 1 3 3 3 3 4 4 4 4 5
16 17 17 16 14 14 13 13 13 14 14 14 13 13 13 13 12 12 11 10 11 10 9 8 8 9 8 6 5 7 6 4 3 3 2 4 3 1 3 4 4 5 6
17 17 17 17 16 16 15 15 14 14 14 13 12 11 10 10 11 12 11 11 12 11 11 10 9 10 12 11 10 8 8 7 3 2 3 2 3 4 4 4 4 5 6
17 17 16 16 16 16 15 15 15 15 15 14 13 13 12 12 12 12 11 11 11 11 11 10 12 14 14 12 12 10 12 11 8 4 4 3 3 4 4 3 4 5 7
Wind_Direction
21 22 35 90 107 91 233 161 131 150 164 156 133 137 155 156 157 174 182 170 169 96 60 45 37 331 6 331 316 308 275 286 285 287 312 323 322 321 307 285 216 239 219
48 27 47 58 59 194 190 180 167 170 175 169 159 163 167 148 138 154 155 125 107 86 61 54 37 34 11 8 349 354 346 333 314 307 338 348 344 335 320 295 275 249 223
73 77 73 83 55 254 172 174 159 149 148 140 139 133 127 119 124 108 91 80 72 69 69 67 52 37 27 21 14 360 8 5 29 342 347 358 352 2 337 324 293 269 212
110 148 146 164 190 217 147 123 129 138 129 126 124 122 119 116 103 95 88 80 78 85 91 92 75 42 24 358 17 21 24 36 58 37 33 20 8 17 10 354 331 314 269
166 170 182 181 186 147 137 144 145 139 134 136 133 128 119 108 89 88 89 87 91 93 87 77 64 60 44 5 11 23 15 22 33 24 42 33 19 12 16 349 324 317 285
172 170 184 169 143 122 128 140 140 136 138 139 133 119 102 86 71 77 87 92 89 91 94 93 91 88 82 67 49 42 31 22 25 18 28 26 22 8 8 15 357 345 355
131 138 166 153 116 108 122 130 131 120 126 136 131 120 112 113 107 94 82 90 88 84 78 67 63 49 32 72 116 126 80 57 351 345 20 11 4 359 347 0 34 21 4
133 120 134 136 111 108 93 100 114 111 116 131 135 128 121 111 97 106 112 105 97 89 81 72 61 50 17 354 35 42 34 40 28 11 9 351 350 343 329 312 301 140 127
136 121 147 151 142 144 149 154 145 132 125 137 139 135 130 136 171 226 220 132 119 106 81 53 46 50 7 349 4 12 14 5 25 210 242 267 272 274 334 353 353 349 49
184 170 171 153 153 157 161 162 162 160 150 170 150 133 133 143 179 283 276 149 146 147 129 105 68 40 16 4 5 9 7 355 336 324 304 293 330 8 27 10 5 7 13
195 171 174 161 145 145 155 161 161 165 157 163 131 128 125 124 134 310 309 273 150 161 136 120 85 46 26 11 8 13 343 313 315 323 344 5 7 10 22 26 9 360 13
188 182 178 171 163 155 161 161 161 166 166 162 149 142 124 110 96 83 50 47 41 120 115 95 88 63 47 33 18 348 321 321 355 359 1 9 12 14 10 11 27 30 46
193 186 182 175 166 160 165 166 163 173 173 167 150 132 135 132 113 92 85 70 38 42 74 76 94 191 190 121 47 335 348 5 3 0 2 6 10 17 356 357 5 2 119
198 191 184 180 166 169 174 179 185 178 176 168 153 158 167 159 151 155 155 157 171 162 151 145 128 106 129 141 162 25 40 24 359 1 356 353 357 2 6 360 354 355 354
198 190 191 184 175 180 185 146 195 189 171 163 156 160 164 172 129 87 92 135 127 83 190 171 182 179 136 96 69 54 42 19 12 13 7 356 354 357 356 350 346 344 352
202 199 200 205 185 188 171 130 60 63 93 111 162 164 124 114 111 101 92 84 80 274 226 182 156 125 69 54 36 41 50 34 15 16 13 4 355 0 347 353 2 355 347
210 206 193 211 196 188 185 181 155 107 81 104 141 113 118 127 128 134 144 154 196 241 212 165 153 135 102 70 42 43 50 46 15 14 13 7 357 353 348 351 0 359 349
202 205 201 198 205 188 191 189 177 163 157 144 133 116 126 134 145 162 173 188 188 216 202 160 161 158 146 78 24 41 42 38 25 13 18 12 2 353 358 354 13 9 346
197 194 203 200 202 190 182 185 180 169 159 151 149 141 129 126 139 167 197 228 193 175 169 164 171 171 162 182 164 80 49 41 351 354 17 15 3 351 2 356 7 8 326
196 190 196 205 195 193 186 174 170 158 158 162 178 172 161 165 177 182 195 212 203 174 168 178 174 183 190 212 210 227 210 190 275 348 16 13 3 353 356 352 351 346 357
190 177 191 206 196 190 187 164 167 174 178 187 189 173 168 190 197 187 184 186 199 188 180 193 184 192 204 207 222 221 220 242 228 317 1 9 357 344 343 336 333 336 353
186 175 185 202 190 187 190 181 179 186 194 191 183 158 164 202 213 198 194 193 199 206 200 203 218 212 219 218 214 217 235 236 232 256 321 335 323 325 330 331 335 332 332
183 179 179 195 188 183 185 190 196 196 188 188 188 172 180 208 223 222 214 210 211 211 211 214 230 237 227 225 221 219 233 237 233 344 322 321 319 2 334 328 340 342 348
183 185 181 190 191 183 188 194 190 191 194 194 197 198 193 200 215 224 223 222 218 218 217 213 221 239 240 229 219 213 215 198 192 187 205 289 308 193 292 320 338 347 330
186 189 190 190 191 190 190 196 196 190 199 206 205 209 216 213 213 218 215 218 219 219 221 221 223 228 229 228 226 197 138 131 158 180 191 228 301 315 293 310 338 329 325
189 191 192 194 196 196 196 197 203 200 201 206 213 215 213 212 216 217 215 214 218 221 225 226 225 230 227 216 210 173 145 150 160 179 235 228 214 244 282 311 320 311 310